Time,TemperatureF,DewpointF,PressureIn,WindDirection,WindDirectionDegrees,WindSpeedMPH,WindSpeedGustMPH,Humidity,HourlyPrecipIn,Conditions,Clouds,dailyrainin,SoftwareType,DateUTC
2013-04-24 00:00:00,32.4,29.5,29.96,NNW,337,0.0,0.0,89,0.00,,,0.00,WUHU21636XXSP,2013-04-24 04:00:00,
2013-04-24 00:01:00,32.4,29.5,29.96,NNW,337,0.0,0.0,89,0.00,,,0.00,WUHU21636XXSP,2013-04-24 04:01:00,
2013-04-24 00:06:00,32.4,29.5,29.95,NNW,337,0.0,0.0,89,0.00,,,0.00,WUHU21636XXSP,2013-04-24 04:06:00,
2013-04-24 00:11:00,32.4,29.5,29.95,NNW,337,0.0,0.0,89,0.00,,,0.00,WUHU21636XXSP,2013-04-24 04:11:00,
2013-04-24 00:16:00,32.2,29.3,29.96,NNW,337,0.0,0.0,89,0.00,,,0.00,WUHU21636XXSP,2013-04-24 04:16:00,
2013-04-24 00:21:00,32.4,29.5,29.95,NNW,337,0.0,0.0,89,0.00,,,0.00,WUHU21636XXSP,2013-04-24 04:21:00,
2013-04-24 00:26:00,32.2,29.3,29.95,NNW,337,0.0,0.0,89,0.00,,,0.00,WUHU21636XXSP,2013-04-24 04:26:00,
2013-04-24 00:31:00,32.2,29.3,29.95,NNW,337,0.0,0.0,89,0.00,,,0.00,WUHU21636XXSP,2013-04-24 04:31:00,
2013-04-24 00:36:00,32.2,29.3,29.95,NNW,337,0.0,0.0,89,0.00,,,0.00,WUHU21636XXSP,2013-04-24 04:36:00,
2013-04-24 00:41:00,32.2,29.3,29.94,NNW,337,0.0,0.0,89,0.00,,,0.00,WUHU21636XXSP,2013-04-24 04:41:00,
2013-04-24 00:46:00,32.2,29.3,29.94,NNW,337,0.0,0.0,89,0.00,,,0.00,WUHU21636XXSP,2013-04-24 04:46:00,
2013-04-24 00:51:00,32.2,29.3,29.94,NNW,337,0.0,0.0,89,0.00,,,0.00,WUHU21636XXSP,2013-04-24 04:51:00,
2013-04-24 00:56:00,32.2,29.3,29.94,NNW,337,0.0,0.0,89,0.00,,,0.00,WUHU21636XXSP,2013-04-24 04:56:00,
2013-04-24 01:01:00,32.2,29.3,29.94,NNW,337,0.0,0.0,89,0.00,,,0.00,WUHU21636XXSP,2013-04-24 05:01:00,
2013-04-24 01:06:00,32.2,29.3,29.94,NNW,337,0.0,0.0,89,0.00,,,0.00,WUHU21636XXSP,2013-04-24 05:06:00,
2013-04-24 01:11:00,32.2,29.3,29.94,NNW,337,0.0,0.0,89,0.00,,,0.00,WUHU21636XXSP,2013-04-24 05:11:00,
2013-04-24 01:16:00,32.2,29.3,29.94,NNW,337,0.0,0.0,89,0.00,,,0.00,WUHU21636XXSP,2013-04-24 05:16:00,
2013-04-24 01:21:00,32.2,29.3,29.94,NNW,337,0.0,0.0,89,0.00,,,0.00,WUHU21636XXSP,2013-04-24 05:21:00,
2013-04-24 01:26:00,32.2,29.3,29.94,NNW,337,0.0,0.0,89,0.00,,,0.00,WUHU21636XXSP,2013-04-24 05:26:00,
2013-04-24 01:31:00,32.2,29.3,29.94,NNW,337,0.0,0.0,89,0.00,,,0.00,WUHU21636XXSP,2013-04-24 05:31:00,
2013-04-24 01:36:00,32.2,29.3,29.94,NNW,337,0.0,0.0,89,0.00,,,0.00,WUHU21636XXSP,2013-04-24 05:36:00,
2013-04-24 01:41:00,32.2,29.3,29.94,NNW,337,0.0,0.0,89,0.00,,,0.00,WUHU21636XXSP,2013-04-24 05:41:00,
2013-04-24 01:46:00,32.2,29.3,29.94,NNW,337,0.0,0.0,89,0.00,,,0.00,WUHU21636XXSP,2013-04-24 05:46:00,
2013-04-24 01:51:00,32.2,29.3,29.94,NNW,337,0.0,0.0,89,0.00,,,0.00,WUHU21636XXSP,2013-04-24 05:51:00,
2013-04-24 01:56:00,32.2,29.3,29.94,NNW,337,0.0,0.0,89,0.00,,,0.00,WUHU21636XXSP,2013-04-24 05:56:00,
2013-04-24 02:01:00,32.2,29.3,29.94,NNW,337,0.0,0.0,89,0.00,,,0.00,WUHU21636XXSP,2013-04-24 06:01:00,
2013-04-24 02:06:00,32.2,29.3,29.93,NNW,337,0.0,0.0,89,0.00,,,0.00,WUHU21636XXSP,2013-04-24 06:06:00,
2013-04-24 02:11:00,32.2,29.3,29.94,NNW,337,0.0,0.0,89,0.00,,,0.00,WUHU21636XXSP,2013-04-24 06:11:00,
2013-04-24 02:16:00,32.2,29.3,29.93,NNW,337,0.0,0.0,89,0.00,,,0.00,WUHU21636XXSP,2013-04-24 06:16:00,
2013-04-24 02:21:00,32.2,29.3,29.93,NNW,337,0.0,0.0,89,0.00,,,0.00,WUHU21636XXSP,2013-04-24 06:21:00,
2013-04-24 02:26:00,32.2,29.3,29.93,NNW,337,0.0,0.0,89,0.00,,,0.00,WUHU21636XXSP,2013-04-24 06:26:00,
2013-04-24 02:31:00,32.0,29.1,29.93,NNW,337,0.0,0.0,89,0.00,,,0.00,WUHU21636XXSP,2013-04-24 06:31:00,
2013-04-24 02:36:00,32.0,29.1,29.92,NNW,337,0.0,0.0,89,0.00,,,0.00,WUHU21636XXSP,2013-04-24 06:36:00,
2013-04-24 02:41:00,32.0,29.1,29.92,NNW,337,0.0,0.0,89,0.00,,,0.00,WUHU21636XXSP,2013-04-24 06:41:00,
2013-04-24 02:46:00,32.0,29.1,29.92,NNW,337,0.0,0.0,89,0.00,,,0.00,WUHU21636XXSP,2013-04-24 06:46:00,
2013-04-24 02:51:00,32.0,29.1,29.92,NNW,337,0.0,0.0,89,0.00,,,0.00,WUHU21636XXSP,2013-04-24 06:51:00,
2013-04-24 02:56:00,32.2,29.3,29.92,NNW,337,0.0,0.0,89,0.00,,,0.00,WUHU21636XXSP,2013-04-24 06:56:00,
2013-04-24 03:01:00,32.0,29.1,29.93,NNW,337,0.0,0.0,89,0.00,,,0.00,WUHU21636XXSP,2013-04-24 07:01:00,
2013-04-24 03:06:00,32.0,29.1,29.92,NNW,337,0.0,0.0,89,0.00,,,0.00,WUHU21636XXSP,2013-04-24 07:06:00,
2013-04-24 03:11:00,32.2,29.3,29.92,NNW,337,0.0,0.0,89,0.00,,,0.00,WUHU21636XXSP,2013-04-24 07:11:00,
2013-04-24 03:16:00,32.0,29.1,29.92,NNW,337,0.0,0.0,89,0.00,,,0.00,WUHU21636XXSP,2013-04-24 07:16:00,
2013-04-24 03:21:00,32.0,29.1,29.92,NNW,337,0.0,0.0,89,0.00,,,0.00,WUHU21636XXSP,2013-04-24 07:21:00,
2013-04-24 03:26:00,32.0,29.1,29.92,NNW,337,0.0,0.0,89,0.00,,,0.00,WUHU21636XXSP,2013-04-24 07:26:00,
2013-04-24 03:31:00,32.0,29.1,29.92,NNW,337,0.0,0.0,89,0.00,,,0.00,WUHU21636XXSP,2013-04-24 07:31:00,
2013-04-24 03:36:00,31.8,28.9,29.92,NNW,337,0.0,0.0,89,0.00,,,0.00,WUHU21636XXSP,2013-04-24 07:36:00,
2013-04-24 03:41:00,31.8,28.9,29.92,NNW,337,0.0,0.0,89,0.00,,,0.00,WUHU21636XXSP,2013-04-24 07:41:00,
2013-04-24 03:46:00,31.8,28.9,29.93,NNW,337,0.0,0.0,88,0.00,,,0.00,WUHU21636XXSP,2013-04-24 07:46:00,
2013-04-24 03:51:00,31.8,28.9,29.93,NNW,337,0.0,0.0,88,0.00,,,0.00,WUHU21636XXSP,2013-04-24 07:51:00,
2013-04-24 03:56:00,31.8,28.9,29.93,NNW,337,0.0,0.0,88,0.00,,,0.00,WUHU21636XXSP,2013-04-24 07:56:00,
2013-04-24 04:01:00,31.8,28.9,29.93,NNW,337,0.0,0.0,88,0.00,,,0.00,WUHU21636XXSP,2013-04-24 08:01:00,
2013-04-24 04:06:00,31.8,28.9,29.93,NNW,337,0.0,0.0,88,0.00,,,0.00,WUHU21636XXSP,2013-04-24 08:06:00,
2013-04-24 04:11:00,31.8,28.9,29.93,NNW,337,0.0,0.0,88,0.00,,,0.00,WUHU21636XXSP,2013-04-24 08:11:00,
2013-04-24 04:16:00,31.8,28.9,29.92,NNW,337,0.0,0.0,88,0.00,,,0.00,WUHU21636XXSP,2013-04-24 08:16:00,
2013-04-24 04:21:00,31.8,28.9,29.92,NNW,337,0.0,0.0,88,0.00,,,0.00,WUHU21636XXSP,2013-04-24 08:21:00,
2013-04-24 04:26:00,31.8,28.9,29.92,NNW,337,0.0,0.0,88,0.00,,,0.00,WUHU21636XXSP,2013-04-24 08:26:00,
2013-04-24 04:31:00,31.8,28.9,29.92,NNW,337,0.0,0.0,88,0.00,,,0.00,WUHU21636XXSP,2013-04-24 08:31:00,
2013-04-24 04:36:00,31.8,28.9,29.93,NNW,337,0.0,0.0,88,0.00,,,0.00,WUHU21636XXSP,2013-04-24 08:36:00,
2013-04-24 04:41:00,31.8,28.9,29.92,NNW,337,0.0,0.0,88,0.00,,,0.00,WUHU21636XXSP,2013-04-24 08:41:00,
2013-04-24 04:46:00,31.8,28.6,29.92,NNW,337,0.0,0.0,88,0.00,,,0.00,WUHU21636XXSP,2013-04-24 08:46:00,
2013-04-24 04:51:00,31.6,28.4,29.93,NNW,337,0.0,0.0,88,0.00,,,0.00,WUHU21636XXSP,2013-04-24 08:51:00,
2013-04-24 04:56:00,31.8,28.6,29.92,NNW,337,0.0,0.0,88,0.00,,,0.00,WUHU21636XXSP,2013-04-24 08:56:00,
2013-04-24 05:01:00,31.8,28.6,29.92,NNW,337,0.0,0.0,88,0.00,,,0.00,WUHU21636XXSP,2013-04-24 09:01:00,
2013-04-24 05:06:00,31.6,28.4,29.92,NNW,337,0.0,0.0,88,0.00,,,0.00,WUHU21636XXSP,2013-04-24 09:06:00,
2013-04-24 05:11:00,31.8,28.6,29.93,NNW,337,0.0,0.0,88,0.00,,,0.00,WUHU21636XXSP,2013-04-24 09:11:00,
2013-04-24 05:16:00,31.8,28.6,29.93,NNW,337,0.0,0.0,88,0.00,,,0.00,WUHU21636XXSP,2013-04-24 09:16:00,
2013-04-24 05:21:00,31.8,28.6,29.93,NNW,337,0.0,0.0,88,0.00,,,0.00,WUHU21636XXSP,2013-04-24 09:21:00,
2013-04-24 05:26:00,31.6,28.4,29.94,NNW,337,0.0,0.0,88,0.00,,,0.00,WUHU21636XXSP,2013-04-24 09:26:00,
2013-04-24 05:31:00,31.6,28.4,29.93,NNW,337,0.0,0.0,88,0.00,,,0.00,WUHU21636XXSP,2013-04-24 09:31:00,
2013-04-24 05:36:00,31.6,28.4,29.92,NNW,337,0.0,0.0,88,0.00,,,0.00,WUHU21636XXSP,2013-04-24 09:36:00,
2013-04-24 05:41:00,31.5,28.2,29.92,NNW,337,0.0,0.0,88,0.00,,,0.00,WUHU21636XXSP,2013-04-24 09:41:00,
2013-04-24 05:46:00,31.5,28.2,29.93,NNW,337,0.0,0.0,88,0.00,,,0.00,WUHU21636XXSP,2013-04-24 09:46:00,
2013-04-24 05:51:00,31.3,28.0,29.92,NNW,337,0.0,0.0,88,0.00,,,0.00,WUHU21636XXSP,2013-04-24 09:51:00,
2013-04-24 05:56:00,31.1,27.9,29.92,NNW,337,0.0,0.0,88,0.00,,,0.00,WUHU21636XXSP,2013-04-24 09:56:00,
2013-04-24 06:01:00,31.1,27.9,29.92,NNW,337,0.0,0.0,88,0.00,,,0.00,WUHU21636XXSP,2013-04-24 10:01:00,
2013-04-24 06:06:00,31.1,27.9,29.93,NNW,337,0.0,0.0,88,0.00,,,0.00,WUHU21636XXSP,2013-04-24 10:06:00,
2013-04-24 06:11:00,31.1,27.9,29.93,NNW,337,0.0,0.0,88,0.00,,,0.00,WUHU21636XXSP,2013-04-24 10:11:00,
2013-04-24 06:16:00,31.3,28.0,29.93,NNW,337,0.0,0.0,88,0.00,,,0.00,WUHU21636XXSP,2013-04-24 10:16:00,
2013-04-24 06:21:00,31.3,28.0,29.93,NNW,337,0.0,0.0,88,0.00,,,0.00,WUHU21636XXSP,2013-04-24 10:21:00,
2013-04-24 06:26:00,31.3,28.0,29.93,NNW,337,0.0,0.0,88,0.00,,,0.00,WUHU21636XXSP,2013-04-24 10:26:00,
2013-04-24 06:31:00,31.3,28.0,29.93,NNW,337,0.0,0.0,88,0.00,,,0.00,WUHU21636XXSP,2013-04-24 10:31:00,
2013-04-24 06:36:00,31.5,28.2,29.93,NNW,337,0.0,0.0,88,0.00,,,0.00,WUHU21636XXSP,2013-04-24 10:36:00,
2013-04-24 06:41:00,31.3,27.9,29.93,NNW,337,0.0,0.0,87,0.00,,,0.00,WUHU21636XXSP,2013-04-24 10:41:00,
2013-04-24 06:46:00,31.5,28.0,29.93,NNW,337,0.0,0.0,87,0.00,,,0.00,WUHU21636XXSP,2013-04-24 10:46:00,
2013-04-24 06:51:00,31.6,28.2,29.93,NNW,337,0.0,0.0,87,0.00,,,0.00,WUHU21636XXSP,2013-04-24 10:51:00,
2013-04-24 06:56:00,31.6,28.2,29.93,NNW,337,0.0,0.0,87,0.00,,,0.00,WUHU21636XXSP,2013-04-24 10:56:00,
2013-04-24 07:01:00,31.6,28.2,29.93,NNW,337,0.0,0.0,87,0.00,,,0.00,WUHU21636XXSP,2013-04-24 11:01:00,
2013-04-24 07:06:00,31.6,28.2,29.94,NNW,337,0.0,0.0,87,0.00,,,0.00,WUHU21636XXSP,2013-04-24 11:06:00,
2013-04-24 07:11:00,31.8,28.6,29.94,NNW,337,0.0,0.0,88,0.00,,,0.00,WUHU21636XXSP,2013-04-24 11:11:00,
2013-04-24 07:16:00,31.8,28.6,29.94,NNW,337,0.0,0.0,88,0.00,,,0.00,WUHU21636XXSP,2013-04-24 11:16:00,
2013-04-24 07:21:00,31.8,28.6,29.95,NNW,337,0.0,0.0,87,0.00,,,0.00,WUHU21636XXSP,2013-04-24 11:21:00,
2013-04-24 07:26:00,32.0,28.8,29.94,NNW,337,0.0,0.0,88,0.00,,,0.00,WUHU21636XXSP,2013-04-24 11:26:00,
2013-04-24 07:31:00,31.8,28.4,29.94,NNW,337,0.0,0.0,87,0.00,,,0.00,WUHU21636XXSP,2013-04-24 11:31:00,
2013-04-24 07:36:00,32.0,28.6,29.94,NNW,337,0.0,0.0,87,0.00,,,0.00,WUHU21636XXSP,2013-04-24 11:36:00,
2013-04-24 07:41:00,32.2,28.8,29.93,NNW,337,0.0,0.0,87,0.00,,,0.00,WUHU21636XXSP,2013-04-24 11:41:00,
2013-04-24 07:46:00,32.2,28.8,29.93,NNW,337,0.0,0.0,87,0.00,,,0.00,WUHU21636XXSP,2013-04-24 11:46:00,
2013-04-24 07:51:00,32.2,28.8,29.93,NNW,337,0.0,0.0,86,0.00,,,0.00,WUHU21636XXSP,2013-04-24 11:51:00,
2013-04-24 07:56:00,32.4,28.6,29.94,NNW,337,0.0,0.0,86,0.00,,,0.00,WUHU21636XXSP,2013-04-24 11:56:00,
2013-04-24 08:01:00,32.5,28.9,29.94,NNW,337,0.0,0.0,87,0.00,,,0.00,WUHU21636XXSP,2013-04-24 12:01:00,
2013-04-24 08:06:00,32.5,28.9,29.95,NNW,337,0.0,0.0,85,0.00,,,0.00,WUHU21636XXSP,2013-04-24 12:06:00,
2013-04-24 08:11:00,32.5,28.9,29.94,NNW,337,0.0,0.0,85,0.00,,,0.00,WUHU21636XXSP,2013-04-24 12:11:00,
2013-04-24 08:16:00,32.5,28.9,29.93,NNW,337,0.0,0.0,85,0.00,,,0.00,WUHU21636XXSP,2013-04-24 12:16:00,
2013-04-24 08:21:00,32.5,28.4,29.94,NNW,337,0.0,0.0,85,0.00,,,0.00,WUHU21636XXSP,2013-04-24 12:21:00,
2013-04-24 08:26:00,32.7,28.6,29.95,NNW,337,0.0,0.0,85,0.00,,,0.00,WUHU21636XXSP,2013-04-24 12:26:00,
2013-04-24 08:31:00,32.7,28.6,29.95,NNW,337,0.0,0.0,84,0.00,,,0.00,WUHU21636XXSP,2013-04-24 12:31:00,
2013-04-24 08:36:00,32.7,28.6,29.95,NNW,337,0.0,0.0,84,0.00,,,0.00,WUHU21636XXSP,2013-04-24 12:36:00,
2013-04-24 08:41:00,32.9,28.4,29.95,NNW,337,0.0,0.0,84,0.00,,,0.00,WUHU21636XXSP,2013-04-24 12:41:00,
2013-04-24 08:46:00,32.9,28.4,29.95,NNW,337,0.0,0.0,84,0.00,,,0.00,WUHU21636XXSP,2013-04-24 12:46:00,
2013-04-24 08:51:00,32.9,28.2,29.95,NNW,337,0.0,0.0,83,0.00,,,0.00,WUHU21636XXSP,2013-04-24 12:51:00,
2013-04-24 08:56:00,33.1,28.4,29.95,NNW,337,0.0,0.0,83,0.00,,,0.00,WUHU21636XXSP,2013-04-24 12:56:00,
2013-04-24 09:01:00,33.1,28.4,29.95,NNW,337,0.0,0.0,83,0.00,,,0.00,WUHU21636XXSP,2013-04-24 13:01:00,
2013-04-24 09:06:00,33.1,28.4,29.95,NNW,337,0.0,0.0,84,0.00,,,0.00,WUHU21636XXSP,2013-04-24 13:06:00,
2013-04-24 09:11:00,33.1,28.4,29.95,NNW,337,0.0,0.0,83,0.00,,,0.00,WUHU21636XXSP,2013-04-24 13:11:00,
2013-04-24 09:16:00,32.9,27.9,29.95,NNW,337,0.0,0.0,82,0.00,,,0.00,WUHU21636XXSP,2013-04-24 13:16:00,
2013-04-24 09:21:00,33.1,28.0,29.95,NNW,337,0.0,0.0,82,0.00,,,0.00,WUHU21636XXSP,2013-04-24 13:21:00,
2013-04-24 09:26:00,33.1,28.0,29.95,NNW,337,0.0,0.0,82,0.00,,,0.00,WUHU21636XXSP,2013-04-24 13:26:00,
2013-04-24 09:31:00,33.4,28.8,29.95,NNW,337,0.0,0.0,83,0.00,,,0.00,WUHU21636XXSP,2013-04-24 13:31:00,
2013-04-24 09:36:00,33.4,28.4,29.95,NNW,337,0.0,0.0,82,0.00,,,0.00,WUHU21636XXSP,2013-04-24 13:36:00,
2013-04-24 09:41:00,33.4,28.4,29.95,NNW,337,0.0,0.0,82,0.00,,,0.00,WUHU21636XXSP,2013-04-24 13:41:00,
2013-04-24 09:46:00,33.4,28.4,29.95,NNW,337,0.0,0.0,82,0.00,,,0.00,WUHU21636XXSP,2013-04-24 13:46:00,
2013-04-24 09:51:00,33.6,28.6,29.95,NNW,337,0.0,0.0,81,0.00,,,0.00,WUHU21636XXSP,2013-04-24 13:51:00,
2013-04-24 10:05:00,33.4,28.0,29.95,NNW,337,0.0,0.0,81,0.00,,,0.00,WUHU21636XXSP,2013-04-24 14:05:00,
2013-04-24 10:10:00,33.6,28.6,29.95,NNW,337,0.0,0.0,82,0.00,,,0.00,WUHU21636XXSP,2013-04-24 14:10:00,
2013-04-24 10:15:00,34.0,28.6,29.94,NNW,337,0.0,0.0,81,0.02,,,0.02,WUHU21636XXSP,2013-04-24 14:15:00,
2013-04-24 10:20:00,33.6,28.2,29.94,NW,315,0.0,0.0,81,0.02,,,0.02,WUHU21636XXSP,2013-04-24 14:20:00,
2013-04-24 10:25:00,33.6,28.2,29.94,NW,315,0.0,0.0,82,0.02,,,0.02,WUHU21636XXSP,2013-04-24 14:25:00,
2013-04-24 10:30:00,34.0,28.9,29.94,NNW,337,0.0,0.0,81,0.02,,,0.02,WUHU21636XXSP,2013-04-24 14:30:00,
2013-04-24 10:35:00,34.5,29.5,29.94,North,0,0.0,0.0,82,0.02,,,0.02,WUHU21636XXSP,2013-04-24 14:35:00,
2013-04-24 10:40:00,34.5,29.5,29.95,NNW,337,0.0,0.0,79,0.02,,,0.02,WUHU21636XXSP,2013-04-24 14:40:00,
2013-04-24 10:45:00,34.3,28.9,29.95,NNE,22,0.0,0.0,81,0.02,,,0.02,WUHU21636XXSP,2013-04-24 14:45:00,
2013-04-24 10:50:00,34.2,28.2,29.94,NNW,337,0.0,0.0,80,0.02,,,0.02,WUHU21636XXSP,2013-04-24 14:50:00,
2013-04-24 10:55:00,34.5,29.7,29.94,NNW,337,0.0,0.0,83,0.02,,,0.02,WUHU21636XXSP,2013-04-24 14:55:00,
2013-04-24 11:00:00,34.5,29.7,29.94,NNE,22,0.0,0.0,81,0.02,,,0.02,WUHU21636XXSP,2013-04-24 15:00:00,
2013-04-24 11:05:00,34.9,29.5,29.93,NNW,337,0.0,0.0,81,0.02,,,0.02,WUHU21636XXSP,2013-04-24 15:05:00,
2013-04-24 11:10:00,34.7,29.3,29.93,North,0,0.0,0.0,81,0.04,,,0.04,WUHU21636XXSP,2013-04-24 15:10:00,
2013-04-24 11:15:00,34.7,29.3,29.93,North,0,0.0,0.0,80,0.02,,,0.04,WUHU21636XXSP,2013-04-24 15:15:00,
2013-04-24 11:20:00,34.5,29.1,29.93,North,0,0.0,0.0,83,0.02,,,0.04,WUHU21636XXSP,2013-04-24 15:20:00,
2013-04-24 11:25:00,35.2,30.4,29.93,North,0,0.0,0.0,83,0.02,,,0.04,WUHU21636XXSP,2013-04-24 15:25:00,
2013-04-24 11:30:00,35.2,29.7,29.93,NNW,337,0.0,0.0,80,0.04,,,0.06,WUHU21636XXSP,2013-04-24 15:30:00,
2013-04-24 11:35:00,34.9,29.3,29.94,NNW,337,7.3,9.8,80,0.04,,,0.06,WUHU21636XXSP,2013-04-24 15:35:00,
2013-04-24 11:40:00,35.2,30.2,29.93,North,0,2.6,10.0,82,0.04,,,0.06,WUHU21636XXSP,2013-04-24 15:40:00,
2013-04-24 11:45:00,35.4,29.5,29.93,NNW,337,7.3,10.0,79,0.04,,,0.06,WUHU21636XXSP,2013-04-24 15:45:00,
2013-04-24 11:50:00,35.2,29.7,29.94,North,0,0.0,11.6,82,0.04,,,0.06,WUHU21636XXSP,2013-04-24 15:50:00,
2013-04-24 11:55:00,35.6,30.2,29.94,North,0,1.1,11.6,80,0.04,,,0.06,WUHU21636XXSP,2013-04-24 15:55:00,
2013-04-24 12:00:00,35.8,29.8,29.94,NNW,337,4.0,4.0,79,0.06,,,0.08,WUHU21636XXSP,2013-04-24 16:00:00,
2013-04-24 12:05:00,35.6,30.0,29.94,NNW,337,5.8,10.2,80,0.06,,,0.08,WUHU21636XXSP,2013-04-24 16:05:00,
2013-04-24 12:10:00,35.2,29.3,29.94,NW,315,10.0,15.2,79,0.04,,,0.08,WUHU21636XXSP,2013-04-24 16:10:00,
2013-04-24 12:15:00,35.4,30.4,29.94,NNW,337,1.5,15.2,82,0.04,,,0.08,WUHU21636XXSP,2013-04-24 16:15:00,
2013-04-24 12:20:00,35.8,30.4,29.95,NNW,337,6.9,15.6,81,0.04,,,0.08,WUHU21636XXSP,2013-04-24 16:20:00,
2013-04-24 12:25:00,35.4,29.1,29.95,North,0,7.8,17.0,78,0.06,,,0.10,WUHU21636XXSP,2013-04-24 16:25:00,
2013-04-24 12:30:00,35.4,29.5,29.95,North,0,0.2,17.0,79,0.04,,,0.10,WUHU21636XXSP,2013-04-24 16:30:00,
2013-04-24 12:35:00,35.2,29.7,29.95,NW,315,5.3,15.6,80,0.04,,,0.10,WUHU21636XXSP,2013-04-24 16:35:00,
2013-04-24 12:40:00,35.2,29.7,29.95,North,0,3.8,18.1,80,0.04,,,0.10,WUHU21636XXSP,2013-04-24 16:40:00,
2013-04-24 12:45:00,35.2,29.7,29.95,NNW,337,8.9,18.1,79,0.04,,,0.10,WUHU21636XXSP,2013-04-24 16:45:00,
2013-04-24 12:50:00,35.4,30.0,29.95,NW,315,11.6,14.9,81,0.04,,,0.10,WUHU21636XXSP,2013-04-24 16:50:00,
2013-04-24 12:55:00,35.2,29.3,29.95,NNW,337,8.2,15.2,79,0.02,,,0.10,WUHU21636XXSP,2013-04-24 16:55:00,
2013-04-24 13:00:00,35.2,29.7,29.94,NNW,337,11.1,15.2,80,0.02,,,0.10,WUHU21636XXSP,2013-04-24 17:00:00,
2013-04-24 13:05:00,35.2,29.3,29.94,NW,315,10.5,16.1,79,0.02,,,0.10,WUHU21636XXSP,2013-04-24 17:05:00,
2013-04-24 13:10:00,35.4,29.8,29.94,NNW,337,9.8,17.4,80,0.02,,,0.10,WUHU21636XXSP,2013-04-24 17:10:00,
2013-04-24 13:15:00,35.8,29.5,29.94,North,0,9.1,17.4,78,0.02,,,0.10,WUHU21636XXSP,2013-04-24 17:15:00,
2013-04-24 13:20:00,36.1,30.2,29.93,North,0,7.6,17.6,79,0.02,,,0.10,WUHU21636XXSP,2013-04-24 17:20:00,
2013-04-24 13:25:00,36.3,30.7,29.93,NNE,22,3.5,17.6,80,0.00,,,0.10,WUHU21636XXSP,2013-04-24 17:25:00,
2013-04-24 13:30:00,36.7,29.5,29.93,NNW,337,8.0,17.6,75,0.00,,,0.10,WUHU21636XXSP,2013-04-24 17:30:00,
2013-04-24 13:35:00,37.4,30.4,29.93,North,0,4.0,14.7,76,0.00,,,0.10,WUHU21636XXSP,2013-04-24 17:35:00,
2013-04-24 13:40:00,37.6,30.2,29.93,NNW,337,6.7,15.4,75,0.00,,,0.10,WUHU21636XXSP,2013-04-24 17:40:00,
2013-04-24 13:45:00,38.1,30.4,29.93,NNW,337,8.9,16.3,74,0.00,,,0.10,WUHU21636XXSP,2013-04-24 17:45:00,
2013-04-24 13:50:00,37.9,30.0,29.92,NNW,337,9.3,16.3,73,0.00,,,0.10,WUHU21636XXSP,2013-04-24 17:50:00,
2013-04-24 13:55:00,37.9,30.0,29.92,NNW,337,10.5,16.7,73,0.00,,,0.10,WUHU21636XXSP,2013-04-24 17:55:00,
2013-04-24 14:00:00,38.7,30.4,29.92,NNW,337,10.5,23.7,72,0.00,,,0.10,WUHU21636XXSP,2013-04-24 18:00:00,
2013-04-24 14:05:00,38.8,30.4,29.92,NW,315,2.9,23.7,72,0.00,,,0.10,WUHU21636XXSP,2013-04-24 18:05:00,
2013-04-24 14:10:00,39.9,28.9,29.92,NNW,337,11.6,19.0,65,0.00,,,0.10,WUHU21636XXSP,2013-04-24 18:10:00,
2013-04-24 14:15:00,41.0,30.0,29.92,NNW,337,7.3,17.8,65,0.00,,,0.10,WUHU21636XXSP,2013-04-24 18:15:00,
2013-04-24 14:20:00,41.5,28.9,29.92,NNW,337,13.8,19.0,61,0.00,,,0.10,WUHU21636XXSP,2013-04-24 18:20:00,
2013-04-24 14:25:00,40.8,29.5,29.92,WNW,292,8.5,19.4,64,0.00,,,0.10,WUHU21636XXSP,2013-04-24 18:25:00,
2013-04-24 14:30:00,40.1,27.3,29.93,NNW,337,13.1,23.4,60,0.00,,,0.10,WUHU21636XXSP,2013-04-24 18:30:00,
2013-04-24 14:35:00,40.8,28.4,29.93,NNW,337,11.8,23.4,61,0.00,,,0.10,WUHU21636XXSP,2013-04-24 18:35:00,
2013-04-24 14:40:00,41.7,30.0,29.93,NW,315,10.0,20.5,63,0.00,,,0.10,WUHU21636XXSP,2013-04-24 18:40:00,
2013-04-24 14:45:00,41.9,30.0,29.93,NNE,22,6.7,17.2,63,0.00,,,0.10,WUHU21636XXSP,2013-04-24 18:45:00,
2013-04-24 14:50:00,42.4,28.9,29.93,ENE,67,5.3,17.2,59,0.00,,,0.10,WUHU21636XXSP,2013-04-24 18:50:00,
2013-04-24 14:55:00,42.6,29.1,29.93,NNW,337,3.1,15.4,59,0.00,,,0.10,WUHU21636XXSP,2013-04-24 18:55:00,
2013-04-24 15:00:00,42.6,27.5,29.93,North,0,4.9,11.1,55,0.00,,,0.10,WUHU21636XXSP,2013-04-24 19:00:00,
2013-04-24 15:05:00,43.3,29.5,29.93,NNW,337,8.2,16.3,58,0.00,,,0.10,WUHU21636XXSP,2013-04-24 19:05:00,
2013-04-24 15:10:00,42.3,28.4,29.93,North,0,5.1,19.4,58,0.00,,,0.10,WUHU21636XXSP,2013-04-24 19:10:00,
2013-04-24 15:15:00,42.4,26.8,29.93,NNW,337,12.0,19.4,54,0.00,,,0.10,WUHU21636XXSP,2013-04-24 19:15:00,
2013-04-24 15:20:00,42.8,29.3,29.93,NNE,22,4.6,20.5,59,0.00,,,0.10,WUHU21636XXSP,2013-04-24 19:20:00,
2013-04-24 15:25:00,44.2,28.6,29.93,NNE,22,6.2,20.5,54,0.00,,,0.10,WUHU21636XXSP,2013-04-24 19:25:00,
2013-04-24 15:30:00,43.3,28.9,29.93,NW,315,10.0,16.5,57,0.00,,,0.10,WUHU21636XXSP,2013-04-24 19:30:00,
2013-04-24 15:35:00,42.6,28.8,29.93,NW,315,8.7,19.2,58,0.00,,,0.10,WUHU21636XXSP,2013-04-24 19:35:00,
2013-04-24 15:40:00,42.6,29.1,29.93,NW,315,11.6,19.2,59,0.00,,,0.10,WUHU21636XXSP,2013-04-24 19:40:00,
2013-04-24 15:45:00,42.6,29.1,29.93,North,0,8.0,19.6,59,0.00,,,0.10,WUHU21636XXSP,2013-04-24 19:45:00,
2013-04-24 15:50:00,43.2,27.5,29.93,NW,315,9.3,19.6,54,0.00,,,0.10,WUHU21636XXSP,2013-04-24 19:50:00,
2013-04-24 15:55:00,42.6,28.2,29.93,NNW,337,15.8,21.4,57,0.00,,,0.10,WUHU21636XXSP,2013-04-24 19:55:00,
2013-04-24 16:00:00,42.3,26.2,29.93,NNW,337,10.2,21.4,53,0.00,,,0.10,WUHU21636XXSP,2013-04-24 20:00:00,
2013-04-24 16:05:00,43.2,27.1,29.93,NNW,337,7.6,20.1,53,0.00,,,0.10,WUHU21636XXSP,2013-04-24 20:05:00,
2013-04-24 16:10:00,43.3,28.9,29.94,NNE,22,5.1,19.2,57,0.00,,,0.10,WUHU21636XXSP,2013-04-24 20:10:00,
2013-04-24 16:15:00,43.9,27.3,29.94,WNW,292,12.5,18.5,52,0.00,,,0.10,WUHU21636XXSP,2013-04-24 20:15:00,
2013-04-24 16:20:00,42.8,26.8,29.94,NNW,337,9.3,19.0,53,0.00,,,0.10,WUHU21636XXSP,2013-04-24 20:20:00,
2013-04-24 16:25:00,42.1,26.1,29.94,NW,315,8.5,19.0,56,0.00,,,0.10,WUHU21636XXSP,2013-04-24 20:25:00,
2013-04-24 16:30:00,42.4,27.3,29.94,North,0,11.8,19.2,55,0.00,,,0.10,WUHU21636XXSP,2013-04-24 20:30:00,
2013-04-24 16:35:00,43.5,27.3,29.94,NW,315,14.5,22.1,53,0.00,,,0.10,WUHU21636XXSP,2013-04-24 20:35:00,
2013-04-24 16:40:00,44.2,27.7,29.94,NNW,337,10.7,22.1,52,0.00,,,0.10,WUHU21636XXSP,2013-04-24 20:40:00,
2013-04-24 16:45:00,43.9,27.3,29.94,NW,315,9.6,19.0,52,0.00,,,0.10,WUHU21636XXSP,2013-04-24 20:45:00,
2013-04-24 16:50:00,43.7,26.6,29.94,NW,315,14.0,19.0,51,0.00,,,0.10,WUHU21636XXSP,2013-04-24 20:50:00,
2013-04-24 16:55:00,44.2,27.1,29.94,NW,315,10.0,19.0,51,0.00,,,0.10,WUHU21636XXSP,2013-04-24 20:55:00,
2013-04-24 17:00:00,44.4,26.4,29.94,North,0,5.8,19.0,49,0.00,,,0.10,WUHU21636XXSP,2013-04-24 21:00:00,
2013-04-24 17:05:00,44.4,27.9,29.94,NNW,337,8.5,14.9,52,0.00,,,0.10,WUHU21636XXSP,2013-04-24 21:05:00,
2013-04-24 17:10:00,44.8,27.7,29.94,NNW,337,14.7,22.8,51,0.00,,,0.10,WUHU21636XXSP,2013-04-24 21:10:00,
2013-04-24 17:15:00,44.2,27.1,29.94,North,0,10.2,22.8,51,0.00,,,0.10,WUHU21636XXSP,2013-04-24 21:15:00,
2013-04-24 17:20:00,45.3,27.7,29.94,NW,315,9.1,17.2,50,0.00,,,0.10,WUHU21636XXSP,2013-04-24 21:20:00,
2013-04-24 17:25:00,44.1,27.0,29.94,NW,315,10.0,19.9,51,0.00,,,0.10,WUHU21636XXSP,2013-04-24 21:25:00,
2013-04-24 17:30:00,44.1,26.6,29.95,NNW,337,9.1,19.9,50,0.00,,,0.10,WUHU21636XXSP,2013-04-24 21:30:00,
2013-04-24 17:35:00,44.6,27.5,29.95,NNW,337,6.9,15.6,51,0.00,,,0.10,WUHU21636XXSP,2013-04-24 21:35:00,
2013-04-24 17:40:00,44.4,25.9,29.95,WSW,247,7.3,15.6,48,0.00,,,0.10,WUHU21636XXSP,2013-04-24 21:40:00,
2013-04-24 17:45:00,43.9,25.9,29.95,NW,315,8.2,18.3,49,0.00,,,0.10,WUHU21636XXSP,2013-04-24 21:45:00,
2013-04-24 17:50:00,44.2,25.7,29.95,NW,315,11.1,18.3,48,0.00,,,0.10,WUHU21636XXSP,2013-04-24 21:50:00,
2013-04-24 17:55:00,44.2,25.7,29.95,WNW,292,5.8,17.2,48,0.00,,,0.10,WUHU21636XXSP,2013-04-24 21:55:00,
2013-04-24 18:00:00,44.4,25.3,29.95,NW,315,8.9,15.8,47,0.00,,,0.10,WUHU21636XXSP,2013-04-24 22:00:00,
2013-04-24 18:05:00,44.8,25.5,29.96,North,0,10.0,14.7,47,0.00,,,0.10,WUHU21636XXSP,2013-04-24 22:05:00,
2013-04-24 18:10:00,44.2,25.7,29.96,NNW,337,6.9,15.8,48,0.00,,,0.10,WUHU21636XXSP,2013-04-24 22:10:00,
2013-04-24 18:15:00,45.0,26.8,29.95,North,0,5.3,16.3,49,0.00,,,0.10,WUHU21636XXSP,2013-04-24 22:15:00,
2013-04-24 18:20:00,45.0,25.2,29.96,NNW,337,11.1,16.3,46,0.00,,,0.10,WUHU21636XXSP,2013-04-24 22:20:00,
2013-04-24 18:25:00,44.4,24.8,29.96,NNW,337,4.0,14.5,46,0.00,,,0.10,WUHU21636XXSP,2013-04-24 22:25:00,
2013-04-24 18:30:00,45.0,25.2,29.96,WSW,247,1.7,11.4,46,0.00,,,0.10,WUHU21636XXSP,2013-04-24 22:30:00,
2013-04-24 18:35:00,45.1,25.3,29.96,WNW,292,0.0,8.0,46,0.00,,,0.10,WUHU21636XXSP,2013-04-24 22:35:00,
2013-04-24 18:40:00,45.5,25.2,29.96,WSW,247,0.0,7.8,45,0.00,,,0.10,WUHU21636XXSP,2013-04-24 22:40:00,
2013-04-24 18:45:00,45.0,24.6,29.97,NNW,337,9.8,14.5,45,0.00,,,0.10,WUHU21636XXSP,2013-04-24 22:45:00,
2013-04-24 18:50:00,43.9,23.7,29.96,NW,315,9.3,14.5,45,0.00,,,0.10,WUHU21636XXSP,2013-04-24 22:50:00,
2013-04-24 18:55:00,44.4,24.8,29.96,NNW,337,7.8,12.9,46,0.00,,,0.10,WUHU21636XXSP,2013-04-24 22:55:00,
2013-04-24 19:00:00,44.2,24.6,29.96,WNW,292,8.5,13.6,46,0.00,,,0.10,WUHU21636XXSP,2013-04-24 23:00:00,
2013-04-24 19:05:00,44.2,25.2,29.96,WNW,292,5.1,28.6,47,0.00,,,0.10,WUHU21636XXSP,2013-04-24 23:05:00,
2013-04-24 19:10:00,44.2,24.6,29.96,WNW,292,5.1,28.6,46,0.00,,,0.10,WUHU21636XXSP,2013-04-24 23:10:00,
2013-04-24 19:15:00,44.2,25.2,29.96,West,270,4.2,19.2,47,0.00,,,0.10,WUHU21636XXSP,2013-04-24 23:15:00,
2013-04-24 19:20:00,44.2,24.6,29.96,WNW,292,7.3,20.1,46,0.00,,,0.10,WUHU21636XXSP,2013-04-24 23:20:00,
2013-04-24 19:25:00,44.2,24.6,29.97,West,270,0.8,20.1,46,0.00,,,0.10,WUHU21636XXSP,2013-04-24 23:25:00,
2013-04-24 19:30:00,44.2,24.6,29.97,West,270,0.0,18.3,47,0.00,,,0.10,WUHU21636XXSP,2013-04-24 23:30:00,
2013-04-24 19:35:00,44.6,25.5,29.97,WNW,292,0.0,15.8,47,0.00,,,0.10,WUHU21636XXSP,2013-04-24 23:35:00,
2013-04-24 19:40:00,44.2,24.1,29.97,WNW,292,0.0,5.8,45,0.00,,,0.10,WUHU21636XXSP,2013-04-24 23:40:00,
2013-04-24 19:45:00,43.7,24.1,29.97,NW,315,5.5,9.8,46,0.00,,,0.10,WUHU21636XXSP,2013-04-24 23:45:00,
2013-04-24 19:50:00,43.5,24.4,29.97,NW,315,4.4,25.5,47,0.00,,,0.10,WUHU21636XXSP,2013-04-24 23:50:00,
2013-04-24 19:55:00,43.5,25.0,29.97,West,270,2.0,25.5,48,0.00,,,0.10,WUHU21636XXSP,2013-04-24 23:55:00,
2013-04-24 20:00:00,43.2,24.1,29.97,WNW,292,2.6,20.3,47,0.00,,,0.10,WUHU21636XXSP,2013-04-25 00:00:00,
2013-04-24 20:05:00,43.0,24.4,29.97,WNW,292,4.4,16.5,48,0.00,,,0.10,WUHU21636XXSP,2013-04-25 00:05:00,
2013-04-24 20:10:00,42.6,24.8,29.97,West,270,0.0,4.4,49,0.00,,,0.10,WUHU21636XXSP,2013-04-25 00:10:00,
2013-04-24 20:15:00,42.4,24.1,29.98,West,270,0.6,4.4,49,0.00,,,0.10,WUHU21636XXSP,2013-04-25 00:15:00,
2013-04-24 20:20:00,41.7,24.4,29.98,West,270,0.0,1.5,50,0.00,,,0.10,WUHU21636XXSP,2013-04-25 00:20:00,
2013-04-24 20:25:00,41.0,23.7,29.98,WNW,292,3.8,3.8,50,0.00,,,0.10,WUHU21636XXSP,2013-04-25 00:25:00,
2013-04-24 20:30:00,40.3,23.4,29.98,West,270,0.0,3.8,51,0.00,,,0.10,WUHU21636XXSP,2013-04-25 00:30:00,
2013-04-24 20:35:00,39.9,23.5,29.98,WNW,292,0.0,3.8,52,0.00,,,0.10,WUHU21636XXSP,2013-04-25 00:35:00,
2013-04-24 20:40:00,39.6,23.2,29.98,WNW,292,0.0,0.0,52,0.00,,,0.10,WUHU21636XXSP,2013-04-25 00:40:00,
2013-04-24 20:45:00,39.2,23.4,29.98,WNW,292,0.0,0.0,53,0.00,,,0.10,WUHU21636XXSP,2013-04-25 00:45:00,
2013-04-24 20:50:00,38.7,22.8,29.99,WNW,292,0.0,0.0,53,0.00,,,0.10,WUHU21636XXSP,2013-04-25 00:50:00,
2013-04-24 20:55:00,38.3,23.0,29.99,WNW,292,0.0,0.0,54,0.00,,,0.10,WUHU21636XXSP,2013-04-25 00:55:00,
2013-04-24 21:00:00,38.1,23.2,29.99,WNW,292,0.0,0.0,56,0.00,,,0.10,WUHU21636XXSP,2013-04-25 01:00:00,
2013-04-24 21:05:00,37.6,23.2,29.99,WNW,292,0.0,0.0,56,0.00,,,0.10,WUHU21636XXSP,2013-04-25 01:05:00,
2013-04-24 21:10:00,37.0,23.2,29.99,WNW,292,0.0,0.0,57,0.00,,,0.10,WUHU21636XXSP,2013-04-25 01:10:00,
2013-04-24 21:15:00,36.5,23.0,29.99,WNW,292,0.0,0.0,58,0.00,,,0.10,WUHU21636XXSP,2013-04-25 01:15:00,
2013-04-24 21:20:00,36.1,23.2,29.99,WNW,292,0.0,0.0,59,0.00,,,0.10,WUHU21636XXSP,2013-04-25 01:20:00,
2013-04-24 21:25:00,35.1,23.4,29.99,WNW,292,0.0,0.0,62,0.00,,,0.10,WUHU21636XXSP,2013-04-25 01:25:00,
2013-04-24 21:30:00,34.5,23.2,30.00,WNW,292,0.0,0.0,62,0.00,,,0.10,WUHU21636XXSP,2013-04-25 01:30:00,
2013-04-24 21:35:00,34.0,22.6,30.00,WNW,292,0.0,0.0,63,0.00,,,0.10,WUHU21636XXSP,2013-04-25 01:35:00,
2013-04-24 21:40:00,33.4,23.2,30.00,WNW,292,0.0,0.0,66,0.00,,,0.10,WUHU21636XXSP,2013-04-25 01:40:00,
2013-04-24 21:45:00,33.1,22.8,30.00,WNW,292,0.0,0.0,66,0.00,,,0.10,WUHU21636XXSP,2013-04-25 01:45:00,
2013-04-24 21:50:00,32.9,22.6,30.01,WNW,292,0.0,0.0,66,0.00,,,0.10,WUHU21636XXSP,2013-04-25 01:50:00,
2013-04-24 21:55:00,32.5,22.6,30.01,WNW,292,0.0,0.0,67,0.00,,,0.10,WUHU21636XXSP,2013-04-25 01:55:00,
2013-04-24 22:00:00,32.2,22.3,30.01,WNW,292,0.0,0.0,67,0.00,,,0.10,WUHU21636XXSP,2013-04-25 02:00:00,
2013-04-24 22:05:00,31.8,22.5,30.01,WNW,292,0.0,0.0,68,0.00,,,0.10,WUHU21636XXSP,2013-04-25 02:05:00,
2013-04-24 22:10:00,31.1,22.1,30.01,WNW,292,0.0,0.0,69,0.00,,,0.10,WUHU21636XXSP,2013-04-25 02:10:00,
2013-04-24 22:15:00,30.9,21.9,30.01,WNW,292,0.0,0.0,69,0.00,,,0.10,WUHU21636XXSP,2013-04-25 02:15:00,
2013-04-24 22:20:00,30.6,21.6,30.01,WNW,292,0.0,0.0,69,0.00,,,0.10,WUHU21636XXSP,2013-04-25 02:20:00,
2013-04-24 22:25:00,30.4,21.9,30.02,WNW,292,0.0,0.0,71,0.00,,,0.10,WUHU21636XXSP,2013-04-25 02:25:00,
2013-04-24 22:30:00,30.0,21.6,30.02,WNW,292,0.0,0.0,71,0.00,,,0.10,WUHU21636XXSP,2013-04-25 02:30:00,
2013-04-24 22:35:00,29.8,21.7,30.01,WNW,292,0.0,0.0,72,0.00,,,0.10,WUHU21636XXSP,2013-04-25 02:35:00,
2013-04-24 22:40:00,29.5,21.4,30.01,WNW,292,0.0,0.0,72,0.00,,,0.10,WUHU21636XXSP,2013-04-25 02:40:00,
2013-04-24 22:45:00,29.5,21.4,30.01,WNW,292,0.0,0.0,73,0.00,,,0.10,WUHU21636XXSP,2013-04-25 02:45:00,
2013-04-24 22:50:00,29.5,21.4,30.02,WNW,292,0.0,0.0,74,0.00,,,0.10,WUHU21636XXSP,2013-04-25 02:50:00,
2013-04-24 22:55:00,29.3,21.9,30.02,WNW,292,0.0,0.0,74,0.00,,,0.10,WUHU21636XXSP,2013-04-25 02:55:00,
2013-04-24 23:00:00,29.1,22.1,30.02,WNW,292,0.0,0.0,75,0.00,,,0.10,WUHU21636XXSP,2013-04-25 03:00:00,
2013-04-24 23:05:00,29.1,22.1,30.02,WNW,292,0.0,0.0,76,0.00,,,0.10,WUHU21636XXSP,2013-04-25 03:05:00,
2013-04-24 23:10:00,28.9,22.3,30.02,WNW,292,0.0,0.0,76,0.00,,,0.10,WUHU21636XXSP,2013-04-25 03:10:00,
2013-04-24 23:15:00,28.9,22.3,30.02,WNW,292,0.0,0.0,77,0.00,,,0.10,WUHU21636XXSP,2013-04-25 03:15:00,
2013-04-24 23:20:00,28.8,22.3,30.02,WNW,292,0.0,0.0,77,0.00,,,0.10,WUHU21636XXSP,2013-04-25 03:20:00,
2013-04-24 23:25:00,28.6,22.1,30.02,WNW,292,0.0,0.0,77,0.00,,,0.10,WUHU21636XXSP,2013-04-25 03:25:00,
2013-04-24 23:30:00,28.6,22.1,30.02,WNW,292,0.0,0.0,78,0.00,,,0.10,WUHU21636XXSP,2013-04-25 03:30:00,
2013-04-24 23:35:00,28.6,22.1,30.02,WNW,292,0.0,0.0,79,0.00,,,0.10,WUHU21636XXSP,2013-04-25 03:35:00,
2013-04-24 23:40:00,28.6,22.1,30.01,WNW,292,0.0,0.0,79,0.00,,,0.10,WUHU21636XXSP,2013-04-25 03:40:00,
2013-04-24 23:45:00,28.4,22.6,30.01,WNW,292,0.0,0.0,79,0.00,,,0.10,WUHU21636XXSP,2013-04-25 03:45:00,
2013-04-24 23:50:00,28.4,22.6,30.01,WNW,292,0.0,0.0,79,0.00,,,0.10,WUHU21636XXSP,2013-04-25 03:50:00,
2013-04-24 23:55:00,28.4,22.6,30.01,WNW,292,0.0,0.0,79,0.00,,,0.10,WUHU21636XXSP,2013-04-25 03:55:00,